EDT,Max TemperatureF,Mean TemperatureF,Min TemperatureF,Max Dew PointF,MeanDew PointF,Min DewpointF,Max Humidity, Mean Humidity, Min Humidity, Max Sea Level PressureIn, Mean Sea Level PressureIn, Min Sea Level PressureIn, Max VisibilityMiles, Mean VisibilityMiles, Min VisibilityMiles, Max Wind SpeedMPH, Mean Wind SpeedMPH, Max Gust SpeedMPH,PrecipitationIn, CloudCover, Events, WindDirDegrees
2012-10-1,63,50,37,50,42,37,100,86,46,30.00,29.95,29.91,10,6,0,12,4,,0.00,3,Fog,191
2012-10-2,64,58,53,61,57,48,100,95,82,29.98,29.93,29.88,10,8,1,14,8,18,0.19,8,Rain,159
2012-10-3,70,64,60,61,59,57,100,83,64,30.20,30.09,29.96,10,10,10,10,5,17,0.01,5,,237
2012-10-4,66,60,55,59,55,47,100,83,52,30.23,30.19,30.16,10,7,0,15,3,22,0.00,5,Fog,268
2012-10-5,69,61,54,54,51,49,86,71,55,30.17,30.08,29.94,10,10,9,12,7,21,0.00,1,,234
2012-10-6,60,51,41,52,43,32,100,81,54,30.11,29.94,29.82,10,8,0,18,10,29,0.02,5,Fog-Rain,276
2012-10-7,46,40,35,37,35,31,100,83,61,30.18,30.10,30.03,10,9,2,20,6,23,0.08,7,Rain,274
2012-10-8,43,38,32,37,34,30,100,90,62,30.28,30.22,30.13,10,8,1,10,4,17,0.01,5,,189
2012-10-9,57,46,37,39,35,31,89,70,49,30.23,30.15,30.05,10,10,10,10,3,,0.00,4,,156
2012-10-10,53,47,39,45,40,29,93,83,64,30.12,29.97,29.90,10,8,2,20,10,29,0.05,6,Rain,259
2012-10-11,52,42,32,29,27,25,79,59,37,30.30,30.22,30.13,10,10,10,21,11,34,0.00,0,,259
2012-10-12,48,41,33,36,28,20,93,61,41,30.45,30.28,30.15,10,10,10,22,10,25,0.00,3,Rain,308
2012-10-13,55,41,28,37,27,19,72,58,45,30.46,30.37,30.17,10,10,10,13,6,21,0.00,0,,163
2012-10-14,72,60,50,54,48,37,69,61,51,30.14,30.01,29.79,10,10,10,20,10,26,0.00,4,,201
2012-10-15,63,54,43,55,47,40,94,83,60,29.87,29.77,29.67,10,9,2,20,13,36,0.27,7,Rain,260
2012-10-16,48,44,39,40,37,34,89,79,62,29.97,29.91,29.85,10,10,10,20,12,26,0.00,6,,281
2012-10-17,63,50,36,41,36,31,89,62,32,29.99,29.93,29.85,10,10,10,14,6,21,0.00,0,,174
2012-10-18,60,52,46,50,45,41,100,85,60,29.86,29.82,29.75,10,7,0,20,11,29,0.49,5,Fog-Rain,202
2012-10-19,61,51,42,48,44,35,100,90,39,29.83,29.76,29.63,10,3,0,14,3,21,0.14,7,Fog-Rain-Thunderstorm,186
2012-10-20,48,45,42,40,37,34,89,76,59,29.93,29.79,29.71,10,10,8,21,13,26,0.01,6,Rain,246
2012-10-21,52,46,41,39,36,32,89,75,50,30.17,30.09,29.95,10,10,10,14,10,20,0.00,4,,269
2012-10-22,66,52,39,46,40,34,82,65,45,30.22,30.18,30.14,10,10,10,10,6,,0.00,0,,246
2012-10-23,70,62,55,51,48,46,84,61,45,30.13,30.09,30.05,10,10,10,13,8,22,0.04,3,Rain,233
2012-10-24,69,62,57,51,49,46,72,61,49,30.17,30.12,30.09,10,10,10,12,6,18,0.00,2,,242
2012-10-25,73,64,55,54,50,46,94,67,41,30.17,30.13,30.09,10,9,4,13,6,21,0.00,2,,163
2012-10-26,66,60,55,54,53,51,94,84,65,30.17,30.11,30.05,10,7,4,10,8,,0.00,4,,155
2012-10-27,59,52,46,52,48,45,96,84,67,30.02,29.96,29.92,10,8,1,13,7,18,0.00,8,Rain,144
2012-10-28,46,44,41,45,43,41,100,97,93,29.95,29.85,29.75,10,2,0,13,7,17,0.21,8,Fog-Rain,15
2012-10-29,41,37,33,40,36,32,100,96,92,29.76,29.42,28.95,10,3,0,31,15,44,2.28,8,Fog-Rain-Snow-Thunderstorm,321
2012-10-30,42,36,30,41,34,28,100,98,93,29.40,29.11,28.83,10,4,1,25,13,37,1.02,8,Rain-Snow,149
2012-10-31,34,32,30,34,31,28,100,94,87,29.64,29.47,29.34,10,4,1,17,11,25,0.29,8,Rain-Snow,235